#timestamp,LO_Frequency,Hit,StdDev 
1550786415.7,286047002.9,N
1550786435.5,286047002.2,N
1550786455.4,286047004.2,N
1550786475.2,286047000.4,N
1550786495.1,286047007.3,Y
1550786496.0,286047007.3,P
1550786515.8,286047003.7,N
1550786535.6,286047002.6,N
1550786555.5,286047002.5,N
1550786575.3,286047002.6,N
1550786595.2,286047003.8,N
1550786615.9,286046997.0,N
1550786635.7,286047000.6,N
1550786655.6,286046997.4,N
1550786675.4,286047001.1,N
1550786695.2,286046998.1,N
1550786715.1,286047000.8,N
1550786716.0,286047000.8,N
1550786735.8,286047001.4,N
1550786755.7,286047004.9,N
1550786775.5,286047005.5,N
1550786795.3,286047004.1,N
1550786815.2,286047002.0,N
1550786835.0,286047003.1,N
1550786835.9,286047003.1,N
1550786855.8,286047002.2,N
1550786875.6,286046999.9,N
1550786895.4,286047001.8,N
1550786915.3,286047005.0,N
1550786935.1,286047004.8,N
1550786955.8,286047001.4,N
1550786975.7,286047005.7,N
1550786995.5,286047000.3,N
1550787015.4,286047002.9,N
1550787035.2,286047005.7,N
1550787055.0,286047007.6,Y
1550787055.9,286047007.6,P
1550787075.8,286047001.0,N
1550787095.6,286047001.1,N
1550787115.5,286047000.9,N
1550787135.3,286047004.4,N
1550787155.1,286047004.0,N
1550787175.9,286047007.1,Y
1550787195.7,286047003.0,P
1550787215.5,286047002.7,P
1550787235.4,286047000.6,P
1550787255.2,286047000.1,N
1550787275.1,286046999.6,N
1550787276.0,286046999.6,N
1550787295.8,286046998.9,N
1550787315.6,286046995.4,N
1550787335.5,286046995.8,N
1550787355.3,286046992.7,N
1550787375.2,286046998.0,N
1550787395.9,286047000.5,N
1550787415.7,286047004.0,N
1550787435.6,286047007.1,N
1550787455.4,286047008.6,N
1550787475.3,286047002.3,N
1550787495.1,286046997.7,N
1550787496.0,286046997.7,N
1550787515.8,286046997.7,N
1550787535.7,286047002.3,N
1550787555.5,286047000.1,N
1550787575.3,286047000.9,N
1550787595.2,286047000.9,N
1550787615.0,286046994.3,N
1550787615.9,286046994.3,N
1550787635.8,286046995.3,N
1550787655.6,286046995.0,N
1550787675.4,286046996.9,N
1550787695.3,286046998.1,N
1550787715.1,286046998.6,N
1550787735.9,286046998.8,N
1550787755.7,286046998.2,N
1550787775.5,286046996.7,N
1550787795.4,286047000.0,N
1550787815.2,286047001.7,N
1550787835.1,286047000.7,N
1550787836.0,286047000.7,N
1550787855.8,286047001.3,N
1550787875.6,286047002.7,N
1550787895.5,286047002.1,N
1550787915.3,286047004.8,N
1550787935.1,286047005.3,N
1550787955.9,286047000.0,N
1550787975.7,286047002.0,N
1550787995.6,286047000.1,N
1550788015.4,286047005.3,N
1550788035.2,286047004.7,N
1550788055.1,286047001.4,N
1550788056.0,286047001.4,N
1550788075.8,286047001.2,N
1550788095.7,286047002.7,N
1550788115.5,286047000.9,N
1550788135.3,286047009.2,Y
1550788155.2,286047004.8,P
1550788175.0,286046999.3,N
1550788175.9,286046999.3,N
1550788195.8,286046999.3,N
1550788215.6,286047005.7,N
1550788235.4,286047001.7,N
1550788255.3,286046996.6,N
1550788275.1,286047000.6,N
1550788295.8,286046998.9,N
1550788315.7,286046993.8,N
1550788335.5,286046993.5,N
1550788355.4,286046996.4,N
1550788375.2,286046996.0,N
1550788395.0,286047001.4,N
1550788395.9,286047001.4,N
1550788415.8,286046999.7,N
1550788435.6,286047000.0,N
1550788455.5,286047005.3,N
1550788475.3,286047006.6,N
1550788495.1,286047006.7,N
1550788545.9,286047003.1,E
1550788555.8,286047001.8,N
1550788575.7,286046997.1,P
1550788595.5,286046996.6,N
1550788615.3,286046996.6,N
1550788635.2,286046993.2,Y
1550788655.0,286046992.0,P
1550788655.9,286046992.0,N
1550788675.8,286046989.5,P
1550788725.6,286046994.7,E
1550788735.5,286046997.1,N
1550788755.4,286047001.2,P
1550788775.2,286046998.6,N
1550788795.1,286046998.6,N
1550788796.0,286046998.6,N
1550788815.8,286046996.5,N
1550788835.6,286047001.9,N
1550788855.5,286047002.2,N
1550788875.3,286047002.4,N
1550788895.2,286047006.9,Y
1550788915.9,286047003.9,P
1550788935.7,286046998.9,N
1550788955.6,286046997.4,N
1550788975.4,286046995.8,N
1550788995.2,286046997.5,N
1550789015.1,286046993.6,N
1550789016.0,286046993.6,N
1550789035.8,286046994.9,N
1550789055.7,286047002.8,N
1550789075.5,286047004.2,N
1550789095.3,286047002.1,N
1550789115.2,286047004.2,N
1550789135.0,286047003.2,N
1550789135.9,286047003.2,N
1550789155.8,286047009.2,N
1550789175.6,286047001.8,N
1550789195.4,286047003.6,N
1550789215.3,286047004.6,N
1550789235.1,286047006.5,N
1550789255.8,286047007.5,N
1550789275.7,286047003.3,N
1550789295.5,286046999.7,N
1550789315.4,286047003.0,N
1550789335.2,286046999.7,N
1550789355.0,286047004.9,N
1550789355.9,286047004.9,N
1550789375.8,286047004.8,N
1550789395.6,286047004.7,N
1550789415.5,286047002.5,N
1550789435.3,286047002.4,N
1550789455.1,286047002.1,N
1550789475.9,286047000.9,N
1550789495.7,286047004.2,N
1550789515.5,286047007.1,N
1550789535.4,286047004.6,N
1550789555.2,286047003.5,N
1550789575.1,286047004.0,N
1550789576.0,286047004.0,N
1550789595.8,286047006.0,N
1550789615.6,286046999.6,N
1550789635.5,286046991.8,Y
1550789655.3,286046994.1,P
1550789675.2,286046997.5,N
1550789695.9,286046994.1,N
1550789715.7,286046995.4,N
1550789735.6,286046996.0,N
1550789755.4,286046998.4,N
1550789775.3,286047001.5,N
1550789795.1,286047004.8,N
1550789796.0,286047004.8,N
1550789815.8,286047005.7,N
1550789835.7,286047002.5,N
1550789855.5,286047001.2,N
1550789875.3,286046998.2,N
1550789895.2,286046995.3,N
1550789915.0,286046994.4,N
1550789915.9,286046994.4,N
1550789935.8,286046998.0,N
1550789955.6,286046998.0,N
1550789975.4,286046997.9,N
1550789995.3,286046998.2,N
